www.pogodaiklimat.ru

Погода и климат >> Архив погоды >> Австралия >> Новый Южный Уэльс >> Уогга-Уогга


ПОГОДА в Уогга-Уогге

  • Прогноз погоды в Уогга-Уогге
  • Монитор погоды в Уогга-Уогге

АРХИВ ПОГОДЫ в Уогга-Уогге

Время (UTC), дата Ветер
(напр.,м/с)
 
Видим.   Явления Облачность Т
(С)
Тd
(С)
f
(%)
Тe
(С)
Тes
(С)
Комфортность P
(гПа)
Po
(гПа)
Тmin
(С)
Tmax
(С)
R
(мм)
R24
(мм)
S
(см)
16 18.05 В 3 н/о н/о +7.3 +5.8 90 +5 +5 1029.5 1003.7
17 18.05 СЗ 2 н/о н/о +5.8 +5.2 96 +4 +4 1029.6 1003.8
18 18.05 В 2 н/о н/о +6.5 +6.4 99 +4 +4 1029.5 1003.7
19 18.05 З 1 н/о н/о +6.2 +6.1 99 +5 +5 1029.6 1003.8
20 18.05 штиль 0 н/о н/о +5.7 +4.8 94 +5 +5 1029.7 1003.9
21 18.05 В 3 н/о н/о +7.0 +6.9 99 +4 +4 1030.4 1004.6
22 18.05 В 4 н/о н/о +9.4 +7.5 88 +7 +7 1030.7 1004.9
23 18.05 В 5 н/о 1/0
[]
+12.2 +7.9 75 +10 +11 1030.9 1005.1
00 19.05 В 4 н/о н/о +14.1 +9.9 76 +13 +13 1030.6 1004.8
01 19.05 СВ 4 н/о н/о +15.3 +10.1 71 +14 +14 1030.3 1004.5
02 19.05 В 5 н/о 1/0
[]
+17.1 +12.0 72 +17 +20 1029.4 1003.6 +5.5
03 19.05 В 4 н/о н/о +18.1 +11.2 64 +18 +18 1028.2 1002.4
04 19.05 В 4 н/о н/о +18.1 +10.5 61 +18 +18 1027.4 1001.7
05 19.05 В 3 н/о 8/0
[]
+18.2 +10.3 60 +19 +20 1027.3 1001.6
06 19.05 ЮВ 3 н/о н/о +17.4 +11.2 67 +18 +18 1027.1 1001.4
07 19.05 ЮВ 3 н/о н/о +15.7 +11.1 74 +15 +15 1026.6 1000.9
08 19.05 В 4 н/о 10/10 1500 м
[]
+15.8 +10.8 72 +15 +15 1026.8 1001.1
09 19.05 В 5 н/о н/о +15.1 +10.1 72 +14 +14 1026.8 1001.1
10 19.05 В 3 н/о н/о +14.2 +9.6 74 +13 +13 1027.1 1001.4
11 19.05 В 4 н/о 1/0
[]
+13.6 +9.6 77 +12 +12 1027.1 1001.4
12 19.05 В 4 н/о н/о +13.3 +9.4 77 +12 +12 1027.3 1001.6
13 19.05 В 3 н/о н/о +13.0 +9.3 78 +12 +12 1026.9 1001.2
14 19.05 В 4 н/о 1/0
[]
+12.4 +8.7 78 +11 +11 1026.7 1001.0 +18.8
15 19.05 В 3 н/о н/о +11.0 +9.1 88 +9 +9 1026.4 1000.7
16 19.05 В 3 н/о н/о +10.5 +8.8 89 +8 +8 1026.3 1000.6
17 19.05 В 3 н/о н/о +10.4 +8.2 86 +9 +9 1026.0 1000.3
18 19.05 В 3 н/о н/о +10.8 +8.4 85 +9 +9 1025.9 1000.2
19 19.05 В 4 н/о н/о +11.1 +8.3 83 +9 +9 1025.9 1000.2
20 19.05 В 3 н/о 9/0
[]
+10.5 +7.9 84 +8 +8 1026.0 1000.3
21 19.05 В 4 н/о н/о +10.5 +7.9 84 +8 +8 1026.3 1000.6
22 19.05 В 4 н/о н/о +11.7 +8.6 81 +10 +10 1026.7 1001.0
23 19.05 В 4 н/о н/о +14.1 +9.7 75 +13 +13 1026.7 1001.0
00 20.05 В 3 н/о н/о +16.3 +9.9 66 +16 +16 1026.7 1001.0
01 20.05 В 3 н/о н/о +18.5 +12.3 67 +19 +19 1025.9 1000.2
02 20.05 С 4 н/о 1/0 2000 м
[]
+21.1 +11.4 54 +23 +28 комфорт 1025.1 999.4 +9.3
03 20.05 С 4 н/о н/о +21.5 +10.0 48 +23 +23 комфорт 1023.9 998.2
04 20.05 С 5 н/о н/о +22.6 +9.7 44 +24 +24 комфорт 1023.1 997.5
05 20.05 СЗ 4 н/о 5/0 2000 м
[]
+22.5 +9.3 43 +24 +26 комфорт 1022.7 997.1
06 20.05 С 2 н/о н/о +21.6 +8.8 44 +23 +23 комфорт 1022.2 996.6
07 20.05 С 2 н/о н/о +20.2 +8.8 48 +22 +22 комфорт 1022.0 996.4
08 20.05 С 2 н/о 10/0
[]
+18.9 +9.1 53 +20 +20 1022.2 996.6
09 20.05 С 1 н/о н/о +16.8 +10.4 66 +18 +18 1022.7 997.1
10 20.05 штиль 0 н/о н/о +16.8 +10.4 66 +17 +17 1022.8 997.2
11 20.05 СВ 2 н/о 3/0 2000 м
[]
+16.9 +8.3 57 +17 +17 1023.2 997.6
12 20.05 ЮЗ 2 н/о н/о +14.3 +11.1 81 +14 +14 1024.3 998.6
13 20.05 СВ 4 н/о н/о +14.7 +10.1 74 +13 +13 1023.7 998.1
14 20.05 В 2 н/о 3/3 1500 м
[]
+13.5 +10.5 82 +13 +13 1023.5 997.9 +23.1
15 20.05 штиль 0 н/о н/о +11.9 +9.1 83 +11 +11 1023.0 997.4
16 20.05 ЮЗ 1 н/о н/о +11.2 +9.5 89 +11 +11 1023.0 997.4
17 20.05 штиль 0 н/о 10/0 2000 м
[]
+12.6 +9.6 82 +12 +12 1023.2 997.6
18 20.05 штиль 0 н/о н/о +12.1 +9.8 86 +12 +12 1023.2 997.6
19 20.05 штиль 0 н/о н/о +12.2 +10.6 90 +12 +12 1023.4 997.8
20 20.05 штиль 0 н/о 4/0 2000 м
[]
+10.7 +8.6 87 +10 +10 1024.1 998.4
21 20.05 штиль 0 н/о н/о +11.0 +8.8 86 +10 +10 1024.5 998.8
22 20.05 ЮВ 2 н/о н/о +11.6 +9.5 87 +10 +10 1025.2 999.5
23 20.05 штиль 0 н/о 1/1 1500 м
[]
+15.1 +10.1 72 +15 +18 1025.6 999.9
00 21.05 В 2 н/о н/о +17.4 +9.8 61 +18 +18 1025.5 999.8
01 21.05 С 2 н/о н/о +18.1 +10.7 62 +19 +19 1025.4 999.7
02 21.05 штиль 0 н/о 1/0
[]
+19.1 +10.6 58 +20 +29 1024.8 999.1 +9.9
03 21.05 СЗ 2 н/о н/о +20.1 +11.1 56 +22 +22 комфорт 1024.3 998.6
04 21.05 Ю 2 н/о н/о +20.7 +11.6 56 +24 +24 комфорт 1024.0 998.3
05 21.05 ЮЗ 1 н/о н/о +21.3 +11.6 54 +23 +23 комфорт 1024.0 998.3
06 21.05 З 1 н/о н/о +20.2 +9.7 51 +23 +23 комфорт 1024.2 998.5
07 21.05 штиль 0 н/о н/о +18.8 +10.9 60 +19 +19 1024.4 998.7
08 21.05 В 2 н/о 10/0
[]
+15.3 +10.5 73 +15 +15 1024.7 999.0
09 21.05 ЮВ 3 н/о н/о +14.7 +11.7 82 +14 +14 1025.3 999.6
10 21.05 ЮВ 2 н/о н/о +13.1 +10.6 85 +13 +13 1025.4 999.7
11 21.05 В 2 н/о н/о +11.3 +9.6 89 +10 +10 1025.8 1000.1
12 21.05 штиль 0 н/о н/о +11.2 +10.3 94 +10 +10 1026.1 1000.4
13 21.05 штиль 0 н/о н/о +10.4 +10.2 99 +10 +10 1026.2 1000.5
14 21.05 ЮВ 2 н/о 10/0
[]
+11.6 +11.1 97 +10 +10 1026.2 1000.5 +21.7
15 21.05 В 3 н/о н/о +9.9 +9.8 99 +8 +8 1026.3 1000.6
16 21.05 ЮВ 3 н/о н/о +9.0 +8.6 97 +7 +7 1026.3 1000.6
17 21.05 ЮВ 3 н/о н/о +8.5 +8.4 99 +6 +6 1026.4 1000.7
18 21.05 штиль 0 н/о н/о +7.5 +7.4 99 +6 +6 1026.6 1000.9
19 21.05 СВ 1 н/о н/о +7.4 +7.4 100 +6 +6 1027.0 1001.3
20 21.05 В 2 3000 м н/о +7.0 +7.0 100 +4 +4 1027.5 1001.8
21 21.05 штиль 0 н/о н/о +5.3 +5.2 99 +4 +4 1028.1 1002.3
22 21.05 В 3 н/о н/о +8.9 +8.9 100 +6 +6 1028.9 1003.1
23 21.05 СВ 2 н/о н/о +11.8 +11.2 96 +11 +11 1029.3 1003.5
00 22.05 В 2 н/о н/о +13.8 +11.7 87 +13 +13 1029.3 1003.5
01 22.05 В 3 н/о н/о +16.2 +11.6 74 +16 +16 1028.9 1003.1
02 22.05 штиль 0 н/о н/о +17.5 +11.1 66 +18 +18 1028.2 1002.4 +5.1
03 22.05 Ю 1 н/о н/о +18.7 +10.5 59 +20 +20 1027.6 1001.9
04 22.05 З 1 н/о н/о +20.2 +10.6 54 +23 +23 комфорт 1027.0 1001.3
05 22.05 З 1 н/о {туман} н/о +20.0 +8.7 48 +23 +23 комфорт 1026.8 1001.1
06 22.05 З 2 н/о н/о +20.2 +8.2 46 +22 +22 комфорт 1027.0 1001.3
07 22.05 З 3 н/о н/о +16.9 +7.5 54 +17 +17 1027.3 1001.6
08 22.05 ЮЗ 3 н/о н/о +13.1 +8.4 73 +12 +12 1027.6 1001.9
09 22.05 Ю 3 н/о н/о +11.4 +7.7 78 +10 +10 1028.0 1002.2
10 22.05 В 2 н/о н/о +8.0 +5.5 84 +6 +6 1028.3 1002.5
11 22.05 В 2 н/о н/о +7.9 +5.4 84 +6 +6 1028.6 1002.8
12 22.05 штиль 0 н/о н/о +7.0 +5.8 92 +6 +6 1028.6 1002.8
13 22.05 СВ 3 н/о н/о +7.3 +6.7 96 +5 +5 1028.2 1002.4
14 22.05 В 2 н/о н/о +7.1 +7.0 99 +5 +5 1028.1 1002.3 +21.1
15 22.05 В 3 н/о н/о +5.3 +4.6 95 +2 +2 1028.1 1002.3
16 22.05 Ю 2 н/о н/о +4.3 +4.2 99 +2 +2 1028.1 1002.3
17 22.05 В 3 н/о н/о +6.4 +6.3 99 +3 +3 1027.9 1002.1
18 22.05 В 2 н/о н/о +5.2 +5.1 99 +3 +3 1027.6 1001.9
19 22.05 В 3 н/о н/о +5.8 +5.7 99 +3 +3 1027.6 1001.9
20 22.05 ЮВ 3 н/о н/о +5.5 +5.4 99 +2 +2 1028.1 1002.3
21 22.05 В 3 н/о н/о +5.8 +5.7 99 +2 +2 1028.3 1002.5
22 22.05 штиль 0 н/о н/о +6.8 +6.5 98 +6 +6 1028.9 1003.1
23 22.05 В 3 н/о н/о +9.5 +6.9 84 +7 +7 1029.4 1003.6
00 23.05 В 3 н/о н/о +11.6 +7.1 74 +10 +10 1029.4 1003.6
01 23.05 В 3 н/о н/о +14.2 +8.2 67 +14 +14 1029.0 1003.2
02 23.05 В 4 н/о н/о +16.4 +8.9 61 +16 +16 1027.9 1002.1 +4.2
03 23.05 В 2 н/о н/о +17.8 +9.9 60 +19 +19 1026.6 1000.9
04 23.05 В 2 н/о н/о +19.2 +9.4 53 +21 +21 комфорт 1026.0 1000.3
05 23.05 В 2 н/о н/о +19.9 +9.5 51 +22 +22 комфорт 1025.3 999.6
06 23.05 Ю 2 н/о н/о +18.9 +9.4 54 +20 +20 1025.2 999.5
07 23.05 ЮЗ 2 н/о н/о +16.3 +9.5 64 +17 +17 1025.0 999.3
08 23.05 ЮЗ 2 н/о н/о +12.2 +7.5 73 +11 +11 1025.3 999.6
09 23.05 В 2 н/о н/о +10.9 +7.4 79 +10 +10 1025.4 999.7
10 23.05 В 2 н/о н/о +8.0 +4.8 80 +6 +6 1025.7 1000.0
11 23.05 В 2 н/о н/о +8.4 +8.1 98 +6 +6 1025.9 1000.2
12 23.05 В 3 н/о н/о +9.1 +8.6 97 +6 +6 1025.7 1000.0
13 23.05 штиль 0 н/о н/о +6.5 +6.4 99 +5 +5 1025.6 999.9
14 23.05 В 3 н/о н/о +7.3 +6.4 94 +4 +4 1025.1 999.4 +20.3
15 23.05 В 3 н/о н/о +8.0 +6.9 93 +5 +5 1024.9 999.2
16 23.05 ЮВ 2 н/о н/о +6.2 +5.0 92 +4 +4 1024.1 998.4
17 23.05 В 5 н/о н/о +8.3 +6.6 89 +5 +5 1023.6 998.0
18 23.05 В 4 н/о н/о +7.4 +6.5 94 +4 +4 1023.7 998.1
19 23.05 ЮВ 3 н/о н/о +5.8 +4.6 92 +3 +3 1023.5 997.9
20 23.05 В 3 н/о 9/0
[]
+6.9 +5.7 92 +4 +4 1024.4 998.7
21 23.05 В 4 н/о н/о +7.2 +6.1 93 +3 +3 1024.7 999.0
22 23.05 В 5 н/о н/о +7.5 +5.5 87 +4 +4 1024.8 999.1
23 23.05 В 3 н/о н/о +9.2 +5.9 80 +7 +7 1024.8 999.1
00 24.05 В 5 н/о н/о +11.0 +7.1 77 +8 +8 1024.8 999.1
01 24.05 В 4 н/о н/о +13.5 +8.6 72 +12 +12 1024.2 998.6
02 24.05 В 4 н/о 4/0 2000 м
[]
+14.9 +8.8 67 +14 +18 1023.4 997.8 +5.1
03 24.05 В 5 н/о н/о +15.4 +9.1 66 +14 +14 1022.5 996.9
04 24.05 ЮВ 4 н/о н/о +15.8 +9.2 65 +15 +15 1022.6 997.0
05 24.05 В 5 н/о 10/0 2000 м
[]
+15.4 +10.2 71 +14 +15 1021.5 995.9
06 24.05 В 4 н/о н/о +15.2 +10.2 72 +14 +14 1021.8 996.2
07 24.05 В 2 н/о н/о +14.3 +12.0 86 +14 +14 1021.3 995.7
08 24.05 ЮВ 3 н/о 9/0 2000 м
[]
+12.7 +10.6 87 +11 +11 1021.2 995.6
09 24.05 В 3 н/о н/о +12.4 +10.3 87 +11 +11 1021.0 995.4
10 24.05 В 2 н/о н/о +11.3 +9.0 86 +10 +10 1021.1 995.5
11 24.05 В 4 н/о н/о +12.0 +10.1 88 +10 +10 1020.9 995.3
12 24.05 ЮВ 3 н/о н/о +10.7 +9.1 90 +9 +9 1021.1 995.5
13 24.05 В 3 н/о н/о +10.7 +8.5 86 +9 +9 1020.9 995.3
14 24.05 В 3 н/о 6/0
[]
+10.4 +8.7 89 +9 +9 1020.8 995.2 +16.3
15 24.05 В 3 н/о н/о +10.8 +8.7 87 +9 +9 1020.3 994.7
16 24.05 В 3 н/о н/о +10.3 +8.1 86 +8 +8 1020.0 994.4
17 24.05 В 3 н/о 1/0
[]
+10.3 +7.5 83 +8 +8 1019.5 994.0
18 24.05 В 4 н/о н/о +10.1 +7.3 83 +8 +8 1019.0 993.5
19 24.05 В 3 н/о н/о +10.5 +7.6 82 +8 +8 1019.0 993.5
20 24.05 В 3 н/о н/о +9.7 +7.0 83 +8 +8 1019.1 993.6
21 24.05 В 4 н/о н/о +9.5 +6.6 82 +7 +7 1019.3 993.8
22 24.05 В 2 н/о н/о +11.4 +7.3 76 +10 +10 1019.5 994.0
23 24.05 В 2 н/о 9/0
[]
+14.8 +7.6 62 +15 +16 1019.5 994.0
00 25.05 С 3 н/о н/о +15.7 +8.4 62 +15 +15 1019.0 993.5
01 25.05 СВ 2 н/о н/о +18.1 +9.2 56 +19 +19 1018.4 992.9
02 25.05 С 4 н/о 10/0
[]
+20.2 +10.6 54 +22 +24 комфорт 1017.0 991.5 +7.5
03 25.05 С 5 н/о н/о +22.1 +9.6 45 +24 +24 комфорт 1015.7 990.3
04 25.05 З 5 н/о н/о +21.0 +8.6 45 +22 +22 комфорт 1015.1 989.7
05 25.05 СЗ 5 н/о 10/0
[]
+21.2 +8.5 44 +22 +23 комфорт 1014.8 989.4
06 25.05 СЗ 5 н/о н/о +20.8 +8.1 44 +22 +22 комфорт 1014.4 989.0
07 25.05 СЗ 4 н/о н/о +20.0 +7.7 45 +21 +21 комфорт 1014.3 988.9
08 25.05 СЗ 4 н/о 10/0
[]
+19.5 +7.3 45 +20 +20 1014.3 988.9
09 25.05 СЗ 3 н/о н/о +18.5 +7.6 49 +19 +19 1014.6 989.2
10 25.05 С 3 н/о н/о +17.7 +8.3 54 +18 +18 1014.5 989.1
11 25.05 СЗ 4 н/о 10/0
[]
+17.7 +8.8 56 +18 +18 1014.6 989.2
12 25.05 С 3 н/о н/о +16.5 +8.2 58 +16 +16 1014.0 988.6
13 25.05 З 8 н/о н/о +15.7 +9.8 68 +14 +14 1014.9 989.5
14 25.05 С 3 н/о в посл. час дождь {туман} 10/0
[]
+14.1 +10.9 81 +13 +13 1014.0 988.6 +22.4
15 25.05 З 8 н/о н/о +12.7 +11.3 91 +10 +10 1015.1 989.7
16 25.05 З 5 н/о н/о +12.6 +12.3 98 +10 +10 1015.2 989.8

 

Местоположение метеостанции Уогга-Уогга (Новый Южный Уэльс, Австралия): широта -35.16 долгота 147.45 высота над уровнем моря 213 м.

В архиве по умолчанию представлена погода в Уогга-Уогге за последнюю неделю. Архивные данные за месяц целиком и за предыдущие месяцы, начиная с января 2011 года, Вы можете получить, выбрав интересующий диапазон дат из раскрывающегося списка и нажав кнопку "Ввод!".


*Определитесь, кто Вы:
робот инопланетянин человек

Внимание! Время в таблицах - всемирное. Для получения местного времени необходимо прибавить поправку, которая равна 10 ч.

Смотрите также архив погоды в соседних городах и на ближайших метеорологических станциях:

Погода в Теморе (Новый Южный Уэльс, Австралия) (83 км)
Погода в Наррандере (Новый Южный Уэльс, Австралия) (98 км)
Погода в Янко (Новый Южный Уэльс, Австралия) (111 км)
Погода в Олбери (Новый Южный Уэльс, Австралия) (111 км)
Погода в Хантерс Хилл (Виктория, Австралия) (118 км)
Погода в Кабрамерре (Новый Южный Уэльс, Австралия) (120 км)
Погода в Янге (Новый Южный Уэльс, Австралия) (125 км)
Погода в Маунт Джинини (Новый Южный Уэльс, Австралия) (127 км)
Погода в Ханкобане (Новый Южный Уэльс, Австралия) (134 км)
Погода в Рутерглене (Виктория, Австралия) (135 км)

Пояснения к столбцам:

Ветер - указаны скорость ветра в м/с - средняя за 10 мин, порывы в срок и между сроками (в фигурных скобках) и направление, откуда дует ветер: С - северный, СВ - северо-восточный, В - восточный, ЮВ - юго-восточный, Ю - южный, ЮЗ - юго-западный, З - западный, СЗ - северо-западный.
Видимость - горизонтальная дальность видимости в метрах или километрах. При видимости от 1 до 10 км при отсутствии осадков обычно наблюдается дымка, при ухудшении видимости до 1 км и менее - туман. В сухую погоду видимость может ухудшаться дымом, пылью или мглою.
Явления - указаны атмосферные явления, наблюдавшиеся в срок или в последний час перед сроком; фигурными скобками обозначены явления, наблюдавшиеся между сроками (за 1-3 часа до срока); квадратными скобками обозначены град или гололедные отложения с указанием их диаметра в мм.
Облачность - указаны через наклонную черту общая и нижняя облачность в баллах и высота нижней границы облаков в метрах; квадратными скобками обозначены формы облаков: Ci - перистые, Cs - перисто-слоистые, Cc - перисто-кучевые, Ac - высококучевые, As - высокослоистые, Sc - слоисто-кучевые, Ns - слоисто-дождевые, Cu - кучевые, Cb - кучево-дождевые. Подробнее классификацию облаков см. в Атласе облаков (PDF).
T - Температура воздуха - температура, измеренная на высоте 2 м над землей.
Td - Температура точки росы - температура, при понижении до которой содержащийся в воздухе водяной пар достигнет насыщения.
f - Относительная влажность воздуха - влажноcть воздуха, измеренная на высоте 2 м над землей.
Te - Эффективная температура - температура, которую ощущает одетый по сезону человек в тени. Характеристика душности погоды. При расчете учитывается влияние влажности воздуха и скорости ветра на теплоощущения человека.
Tes - Эффективная температура на солнце - температура, которую ощущает человек, с поправкой на солнечный нагрев. Характеристика знойности погоды. Зависит от высоты солнца над горизонтом, облачности и скорости ветра. Ночью, в пасмурную погоду, а также при ветре 12 м/с и более поправка равна нулю.
P - Атмосферное давление - приведенное к уровню моря атмосферное давление.
Po - Атмосферное давление - измеренное на уровне метеостанции атмосферное давление.
Tmin - Минимальная температура - минимум температуры воздуха на высоте 2 м над землей.
Tmax - Максимальная температура - максимум температуры воздуха на высоте 2 м над землей.
R - Количество осадков - Количество выпавших осадков за период времени, мм. При наведении курсора мыши на число - период времени, за который выпало указанное количество осадков.
R24 - Количество осадков - Количество выпавших осадков за 24 часа, мм.
S - Снежный покров - Высота снежного покрова, см. При наведении курсора мыши на число - состояние снежного покрова и степень покрытия местности в баллах.